THORAD AGENA D DEB, 4651

Orbit data source: Space-Track

THORAD AGENA D DEB, 4651 is space debris in SSO originally from a launch on Wed, 08 Apr 1970 UTC launched from the Air Force Western Test Range (AFWTR). Debris objects in space refer to the collection of defunct objects orbiting the Earth. Examples of debris include non-operational satellites, rocket bodies, and fragments generated from explosions, collisions, or faulty payload assembly.

Loading next visibility...
Identifier
4651, 1970-025AK
Orbit
SSO
Country
Flag of USUS
Related business
Manufacturer
Unknown
Mission
Spacecraft
Bus & Motor
Unknown
Mass
Unknown
Launch date (UTC)
1970-04-08 (56 years ago)
Launch vehicle
Unknown
Launch site
Air Force Western Test Range (AFWTR)
Object type
Payload
Rocket body
Debris
Shape & HBR
Unknown shape, 0.2 m
Radar Cross Section
Small (<0.1 m²)

Expand to show TLE details & history
Last TLE update: 10 hours ago

TLE from 10 hours ago
0 THORAD AGENA D DEB
1 04651U 70025AK  25287.74259123  .00001802  00000-0  12010-2 0  9994
2 04651 100.1273 208.8926 0044866  21.6936 338.6114 14.02230920801314
Epoch: 2025-10-14T17:49Z
TLE epoch observation values (Epoch: 2025-10-14T17:49:19.882Z)
Latitude
0.00003°
Longitude
-81.9669°
Altitude
858.588 km
Speed
7.439 km/s
True Right ascension
13h 55m 34s
True Declination
0° 00' 00"
Sunlit
Object was in daylight at epoch
Visualization orbit readout
Latitude
Unknown
Longitude
Unknown
Altitude
Unknown
Speed
Unknown
Apparent Right ascension
Unknown
Apparent Declination
Unknown
Sunlit
N/A
Visualization observer readout
Local Sidereal Time
22:03:09
Azimuth
Unknown
Elevation
Unknown
Doppler factor
Unknown
Orbital elements
Apogee altitude
915.914 km
Perigee altitude
850.756 km
Semi-major axis
7,261.472 km
Eccentricity
0.00449
Inclination
100.1273°
RAAN
208.8926°
Arg. of periapsis
21.6936°
True anomaly
338.42292°
Mean anomaly
338.6114°
Eccentric anomaly
338.51726°
Mean motion
3.50757 °/min
Orbital period
102.64 mins
BSTAR
0.001201

Documentation

Showing up to 5 results
|